Weather in Ozerki

Russia / Volgograd Oblast     49°24′05″N   43°46′42″E
temp.,
°C
wind,
m/s
gust,
m/s
humid.,
%
clouds,
%
prec.,
mm/h
press.,
hPa
HPBL,
m
9 march, tue
tue900:000wsw7129695 0.3 1009684
03:00+1sw6118997 0.6 1009630
06:00−1nw3495100 0.6 1009300
09:00−1nw4592100 1.0 1010398
12:00−2nnw799198 1.4 1011677
15:000wnw576677 2.1 10121200
18:00−2wnw397798 0.3 1013580
21:00−4nnw698097 0.4 1016898
10 march, wed
wed1000:00−7nnw697788 0.1 1017753
03:00−9nw697549 0.1 1019658
06:00−10nw697519 0.0 1021731
09:00−9nw7106822 0.0 1023928
12:00−8nw796396 0.0 10241207
15:00−8nw7105598 0.0 10241234
18:00−10nw710580 0.0 10251014
21:00−12nnw58690 0.0 1027736
11 march, thu
thu1100:00−14n567533 0.0 1028581
03:00−15n467722 0.0 1029488
06:00−16n577819 0.0 1030462
09:00−16n57699 0.0 1032465
12:00−13nne56570 0.0 1032580
15:00−12nne55560 0.0 1031661
18:00−13nne46680 0.0 1031453
21:00−14nne45760 0.0 1033359
12 march, fri
fri1200:00−15nne35790 0.0 1034294
03:00−16nne45800 0.0 1034271
06:00−16nne34770 0.0 1034214
09:00−14nne34670 0.0 1035293
12:00−11ne22610 0.0 1035458
15:00−9ne32661 0.0 1035560
18:00−9ne227214 0.0 1035291
21:00−10ene33787 0.0 1037138
13 march, sat
sat1300:00−10ese34750 0.0 1037174
03:00−10se34720 0.0 1037105
06:00−10se24710 0.0 103793
09:00−7sse45560 0.0 1037462
12:00−5sse464330 0.0 1037956
15:00−3sse563618 0.0 10351153
18:00−4sse47429 0.0 1033355
21:00−5sse494544 0.0 1033354